Location: Salillas
(41.9950°N, 0.2228°W)
Time: 19:41:22
(UTC+00:00)

Terra - Pass Details

Date: 29 March 2020
Orbit: 701 x 703 km, 98.2° (Epoch: 31 May)

Event Time Altitude Azimuth Distance (km) Brightness Sun altitude
Exits shadow 20:49:14 14° 34° (NE) 1,899 4.0 -26.2°
Drops below altitude 10° 20:50:26 10° 21° (NNE) 2,179 4.5 -26.4°
Sets 20:53:19 0° 3° (N) 3,102 5.5 -26.8°
